Latest METARs, TAFs and NOTAMs for SKCL


---------------------------------------------------------------------------
	(OBSERVATIONS)
SKCL 160000Z 35008KT 9999 VCSH SCT017 BKN200 26/19 A2995 RMK
    VC SH / SE=
SKCL 152300Z 34006KT 9999 SCT020TCU 27/18 A2993 RM K/TCU/E/SE/SW=
SKCL 152200Z 34012KT 9999 VCSH SCT020TCU 30/18 A2991 RMK VCSH/T
    CU/E/SE=
---------------------------------------------------------------------------
	(TERMINAL AREA FORECAST)
SKCL 152200Z 160024 VRB02KT 9999 SCT020 SCT080 PROB40
    1601/1605
    8000 DZRA SCT018CB
    TEMPO 1607/1609 9000 VCSH SCT017CB
    TEMPO 1609/1612 5000 BCFG SCT015
    TEMPO 1613/1616 9000 BKN010
    TEMPO 1619/1623 33010KT PROB30
    TEMPO 1618/1622 VCSH SCT017TCU TX30/1618Z TN19/1611Z=
---------------------------------------------------------------------------
	(NOTAMS)


SKCL A1600/14 REMOTE ACFT STAND ZULU POINT INSTL COORD 033320,90W0762252,12W
    REF AIP COLOMBIA 2-SKCL-ADC. 09 JUN 20:30 2014 UNTIL PERM.
    CREATED: 02 JUL 12:25 2014

SKCL A2175/14 TWY A,B,C,C1,C2,D,E,F,G WIP, EXER CTN. H24, 31
    JUL 13:40 2014 UNTIL 31 OCT 23:59 2014. CREATED: 31 JUL 13:45
    2014

SKCL A2176/14 APRON, CARGO APRON AND DECONGESTION APRON WIP,
    EXER CTN. H24, 31 JUL 13:50 2014 UNTIL 31 OCT 23:59 2014.
    CREATED: 31 JUL 13:59 2014

SKCL A2177/14 RWY 01/19 TURNING BAY LTD, ACFT PROHIBITED PARALLEL
    OR ONE SURPASSES THE OTHER ACFT, EXER CTN. H24, 31 JUL 14:50
    2014 UNTIL 31 OCT 23:59 2014. CREATED: 31 JUL 14:50 2014

SKCL A2219/14 SEQUENCED FLG LGT RWY 01 U/S. 04 AUG 14:50 2014
    UNTIL 04 NOV 23:59 2014 ESTIMATED. CREATED: 04 AUG 14:55
    2014

SKCL A2324/14 MOV AREA WO VERTICAL SIGNALLING, EXER CTN. H24,
    15 AUG 21:30 2014 UNTIL 30 NOV 23:59 2014. CREATED: 15 AUG
    22:18 2014

SKCL A2682/14 AD CLSD. 1730-1830, 30 SEP 17:30 2014 UNTIL 30
    SEP 18:30 2014. CREATED: 12 SEP 13:25 2014

SKCL V0094/14 [DOD PROCEDURAL NOTAM] INSTRUMENT APPROACH PROCEDURE
    CHANGED DUE TO HOST CHANGE: ILS RWY 01 AMDT 1: MSA 120-200
    11700FT, 200-350 16100FT, 350-120 15300FT. FAF CROSSING ALTITUDE
    5700FT. MAP 7.1 DME/CLO. VOR RWY 19 ORIG; ANKIN 5A, 5B DEP;
    BUN 6A DEP; BUN 6C DEP - MSA 120-200 11700FT, 200-350 16100FT,
    350-120 15300FT. 23 JUL 22:35 2014 UNTIL 18 SEP 23:59 2014.
    CREATED: 23 JUL 22:36 2014

---------------------------------------------------------------------------